Torna al catalogo

QIANFAN-159

AttivoComunicazioniPO
NORAD 69118·PAYLOAD·🇨🇳 China

Lanciato May 17, 2026 da Wenchang Space Launch Site

Loading…

Prossimi Passaggi (prossime 24 ore)

TLE

AggiornatoSource: Space-Track

Epoca: Sep 14, 2026, 13:47 UTC

1 69118U 26108Q   26257.57451816  .00000108  00000-0  14805-3 0  9991
2 69118  89.0179  13.0686 0001880 103.0001 257.1361 13.51022615 16533

Traccia QIANFAN-159 in tempo reale con AllMySat

Download on the App Store